CAPE
0 19 130 247 281 289 288 294 362 494 558 601 631 654 701 807 936 1042 1150 1135 1123 1093 1087 1102 1242 1506 1537 1483 1436 1419 1420 1418 1415 1433 1423 1427 1395 1287 1179 1295 1376 1416 1485 1559 1583 1652 1746 1769 1876 2036 2108 2120 2145 2220 2175 1575 1002 726 170 485 524 10 0
0 2 59 180 269 287 282 293 387 458 508 558 598 630 677 739 863 963 1105 1190 1183 1168 1169 1187 1177 1323 1561 1607 1560 1521 1524 1524 1529 1539 1532 1533 1518 1438 1267 1300 1392 1463 1453 1489 1573 1660 1741 1817 1856 2009 2109 2174 2220 2258 2028 1424 861 724 674 707 541 0 0
0 0 16 92 235 288 294 290 405 445 499 540 568 598 639 705 810 922 1013 1147 1227 1225 1210 1235 1320 1306 1362 1553 1633 1641 1615 1616 1608 1615 1600 1583 1566 1516 1433 1354 1393 1421 1396 1486 1634 1752 1807 1860 1911 1993 2085 2166 2194 2152 1972 1513 881 707 731 749 248 0 0
0 0 0 30 126 248 278 339 410 435 484 541 570 572 596 664 766 879 956 1046 1184 1254 1256 1269 1370 1421 1389 1424 1533 1620 1653 1648 1644 1644 1635 1607 1563 1540 1522 1515 1504 1447 1407 1503 1669 1771 1864 1926 1978 2004 2067 2138 2181 2146 1971 1593 1012 752 728 508 0 0 0
0 0 0 0 44 141 330 392 414 436 466 506 567 600 605 633 708 817 920 986 1090 1223 1288 1318 1374 1489 1513 1471 1472 1536 1629 1671 1658 1644 1636 1620 1578 1540 1552 1582 1584 1518 1386 1521 1652 1773 1842 1895 1938 1981 2050 2127 2169 2122 1974 1638 1073 896 809 419 0 0 0
0 0 0 0 2 48 184 366 413 439 457 483 537 594 646 654 687 783 889 975 1041 1142 1258 1331 1394 1530 1589 1575 1539 1519 1551 1629 1673 1683 1672 1658 1656 1621 1584 1595 1588 1540 1421 1509 1606 1734 1804 1843 1865 1934 2012 2085 2102 2068 1960 1668 1171 1037 992 807 369 0 0
0 0 0 0 0 2 60 195 362 437 456 486 510 571 642 681 722 802 902 999 1080 1137 1225 1319 1432 1529 1652 1674 1647 1599 1565 1597 1664 1720 1726 1730 1734 1710 1691 1670 1631 1586 1523 1523 1576 1662 1757 1818 1852 1880 1929 1925 1934 1996 1971 1724 1233 1058 1005 811 0 0 0
0 0 0 0 0 0 5 72 207 351 477 505 512 548 650 724 768 818 911 1002 1120 1226 1275 1326 1423 1535 1654 1731 1758 1733 1689 1660 1682 1747 1783 1795 1807 1803 1774 1748 1713 1671 1608 1562 1584 1619 1710 1782 1811 1812 1788 1753 1776 1890 1896 1725 1291 980 940 745 20 0 0
0 0 0 0 0 0 0 9 91 277 410 536 552 592 706 803 843 875 923 997 1129 1265 1363 1407 1468 1549 1639 1732 1796 1822 1793 1769 1766 1799 1837 1852 1862 1871 1857 1820 1782 1741 1712 1691 1667 1653 1698 1719 1708 1688 1670 1651 1672 1738 1757 1652 1334 975 888 758 524 0 0
0 0 0 0 2 4 3 3 19 148 393 561 627 664 774 881 935 967 986 1037 1144 1281 1388 1463 1534 1603 1664 1732 1794 1841 1852 1841 1832 1836 1878 1906 1919 1943 1931 1885 1835 1799 1764 1772 1749 1721 1693 1631 1584 1555 1547 1547 1545 1569 1606 1521 1253 1021 886 731 547 400 0
0 0 0 0 0 12 25 18 11 57 319 626 702 752 852 976 1035 1056 1091 1128 1204 1324 1415 1493 1571 1659 1726 1774 1806 1858 1894 1915 1900 1904 1919 1943 1964 1979 1987 1970 1919 1872 1844 1822 1816 1780 1718 1615 1516 1483 1442 1430 1429 1447 1461 1403 1207 1026 843 645 523 451 169
0 0 0 0 3 4 13 43 49 53 192 548 740 814 906 1041 1123 1149 1190 1256 1303 1393 1476 1564 1645 1738 1814 1853 1883 1911 1944 1976 1990 1991 1996 2004 2014 2021 2019 2030 1995 1955 1934 1904 1852 1838 1763 1678 1582 1460 1448 1409 1380 1355 1328 1269 1149 978 728 548 536 461 0
0 0 0 0 4 9 6 20 76 216 234 441 695 838 935 1081 1184 1226 1263 1330 1410 1501 1591 1668 1765 1876 1916 1962 2008 2010 2030 2046 2062 2067 2062 2080 2084 2080 2085 2086 2055 2022 2003 1964 1932 1874 1805 1740 1652 1550 1443 1419 1362 1318 1267 1178 1098 1021 862 704 467 0 0
0 0 0 0 50 134 147 189 97 214 351 383 612 801 949 1094 1227 1295 1330 1380 1459 1602 1737 1814 1925 2005 2047 2093 2116 2128 2131 2131 2144 2138 2142 2147 2148 2153 2166 2151 2129 2102 2052 2017 1985 1934 1842 1749 1667 1600 1502 1435 1398 1368 1316 1239 1144 1092 1025 808 405 0 0
0 0 0 0 0 4 25 204 250 206 408 443 588 760 920 1100 1269 1340 1391 1416 1483 1661 1830 1961 2060 2148 2207 2224 2256 2249 2226 2225 2220 2235 2232 2220 2198 2209 2215 2213 2194 2148 2105 2082 2043 1985 1918 1807 1696 1610 1551 1512 1484 1456 1415 1362 1287 1213 1146 992 718 626 585
0 0 0 0 0 0 0 21 255 277 319 517 629 770 904 1099 1277 1392 1434 1463 1521 1646 1858 2051 2166 2256 2315 2357 2378 2360 2342 2319 2308 2306 2319 2304 2286 2268 2267 2274 2256 2206 2165 2142 2122 2093 2032 1930 1820 1723 1650 1611 1579 1543 1502 1470 1418 1340 1256 1160 1011 887 801
0 0 0 0 0 0 0 24 99 303 484 585 706 805 938 1096 1268 1405 1457 1496 1544 1654 1869 2088 2254 2329 2409 2465 2467 2461 2445 2427 2398 2367 2363 2368 2361 2361 2350 2317 2287 2256 2238 2214 2206 2181 2148 2068 1969 1881 1828 1765 1700 1621 1576 1568 1545 1438 1326 1212 1133 1048 960
0 0 0 0 0 0 0 13 69 170 519 668 785 876 972 1119 1278 1390 1473 1518 1558 1651 1850 2097 2261 2379 2474 2533 2543 2547 2553 2527 2486 2440 2414 2410 2426 2428 2409 2377 2332 2301 2284 2264 2229 2223 2217 2171 2074 1992 1927 1874 1827 1772 1732 1712 1651 1524 1388 1296 1230 1210 1102
0 0 0 0 0 0 0 23 80 212 532 682 807 942 1056 1176 1289 1392 1488 1540 1589 1639 1822 2096 2260 2385 2485 2552 2603 2616 2626 2614 2578 2529 2493 2472 2468 2459 2449 2420 2384 2354 2322 2293 2267 2249 2235 2202 2139 2078 2016 1944 1888 1857 1870 1864 1774 1635 1446 1368 1357 1348 1294
0 0 0 0 0 0 0 36 134 340 565 715 827 976 1135 1221 1336 1447 1516 1563 1607 1645 1784 2036 2246 2375 2468 2544 2607 2661 2678 2666 2646 2631 2597 2549 2508 2498 2490 2438 2425 2391 2359 2326 2285 2267 2231 2185 2159 2124 2057 1978 1933 1908 1870 1841 1796 1690 1570 1489 1432 1385 1247
520 23 26 58 27 0 2 84 334 480 625 750 866 991 1117 1233 1340 1497 1569 1606 1638 1666 1774 1954 2174 2319 2449 2516 2591 2676 2722 2718 2705 2696 2672 2620 2579 2554 2503 2453 2456 2434 2401 2355 2320 2284 2242 2197 2172 2139 2078 2002 1927 1894 1878 1846 1810 1731 1675 1618 1556 1486 1338
570 605 427 140 393 127 78 107 334 548 680 774 870 971 1059 1189 1298 1415 1570 1686 1718 1727 1770 1900 2048 2225 2363 2460 2554 2649 2718 2750 2748 2736 2705 2676 2647 2594 2535 2480 2450 2455 2442 2398 2347 2294 2245 2191 2151 2114 2080 2032 1985 1954 1948 1903 1863 1802 1757 1698 1622 1514 1455
263 609 593 376 593 820 625 443 506 611 708 806 893 996 1092 1188 1258 1322 1467 1628 1748 1795 1812 1858 1938 2094 2247 2379 2499 2601 2695 2749 2754 2738 2728 2708 2684 2637 2568 2512 2486 2455 2423 2401 2356 2328 2265 2200 2149 2136 2126 2096 2069 2050 2012 1979 1936 1901 1840 1773 1678 1609 1532
1356 1661 1738 1540 785 676 846 871 720 720 876 954 976 1046 1132 1195 1271 1336 1400 1493 1644 1786 1871 1866 1919 2017 2155 2321 2457 2572 2664 2736 2757 2746 2733 2723 2710 2686 2626 2587 2549 2514 2456 2421 2364 2333 2312 2241 2202 2179 2178 2143 2118 2085 2041 2046 2027 1995 1947 1861 1785 1662 1688
1074 1594 2042 2127 2018 1916 1722 952 1005 937 931 1095 1151 1184 1236 1313 1403 1430 1443 1490 1579 1692 1780 1848 1938 2006 2091 2250 2386 2503 2622 2705 2765 2764 2744 2749 2735 2702 2668 2628 2616 2578 2515 2456 2395 2388 2321 2268 2241 2239 2210 2196 2193 2140 2106 2091 2055 2032 1994 1953 1946 1910 1717
845 1255 1813 2266 2417 2436 2155 1339 957 1120 1088 1113 1268 1361 1402 1426 1504 1589 1616 1633 1679 1738 1775 1839 1910 1976 2059 2160 2268 2384 2530 2672 2765 2795 2776 2759 2735 2705 2676 2635 2627 2628 2572 2521 2477 2437 2367 2317 2300 2252 2220 2226 2229 2192 2187 2167 2139 2145 2178 2250 2241 2149 1933
1011 972 1134 1929 2796 3028 2410 1703 1013 942 1165 1179 1203 1357 1452 1520 1562 1678 1784 1816 1824 1841 1903 1957 1977 2008 2060 2110 2157 2258 2403 2592 2718 2797 2806 2766 2721 2690 2664 2643 2654 2630 2589 2548 2528 2479 2443 2393 2325 2249 2214 2229 2238 2202 2201 2198 2248 2304 2373 2453 2413 2371 2181
992 971 995 1116 2207 3008 3150 3003 2055 1940 2030 2160 2528 1433 1256 1534 1691 1723 1818 1936 1940 1956 1998 2024 2047 2089 2109 2140 2164 2199 2276 2417 2582 2724 2787 2768 2697 2656 2672 2671 2628 2649 2600 2566 2546 2518 2483 2442 2384 2302 2239 2248 2254 2197 2204 2240 2299 2419 2556 2616 2618 2565 2530
1079 1179 1138 1055 1455 2125 3154 3293 2908 2573 2622 2810 2844 2891 2140 1524 1696 1817 1917 1952 2033 2107 2127 2110 2140 2169 2158 2154 2146 2154 2188 2271 2437 2615 2713 2739 2715 2670 2665 2666 2666 2681 2656 2615 2572 2562 2526 2474 2424 2354 2323 2338 2323 2301 2331 2374 2504 2656 2768 2784 2726 2768 2583
1245 1254 1161 1291 1417 1683 2387 3224 3419 2990 2953 3003 3082 3113 3177 2858 2318 1808 1860 1992 2100 2190 2210 2240 2269 2294 2288 2272 2271 2253 2254 2266 2306 2472 2577 2660 2680 2685 2678 2657 2674 2690 2694 2677 2645 2608 2568 2538 2473 2436 2451 2482 2464 2484 2560 2616 2685 2701 2307 2212 1731 1769 2050
1426 1333 1348 1272 1321 1577 1826 2114 2753 3507 3522 3220 3200 3304 3348 3207 3148 2888 2584 2049 2168 2573 2225 2269 2344 2349 2362 2377 2367 2358 2348 2342 2342 2350 2492 2573 2640 2672 2681 2698 2695 2712 2736 2727 2677 2653 2612 2546 2520 2498 2516 2549 2594 2667 2742 2812 2746 2625 2118 1716 1517 1530 1654
1191 1329 1340 1318 1355 1502 1664 1830 1874 2342 2900 3418 3465 3403 3435 3421 3327 3263 3204 3058 2918 2796 2395 2098 2164 2296 2387 2425 2449 2484 2470 2430 2401 2382 2348 2447 2563 2670 2716 2735 2757 2747 2744 2736 2717 2691 2627 2554 2502 2523 2584 2646 2703 2779 2802 2737 2593 2447 1790 1308 1160 1262 1390
1364 1323 1230 1181 1442 1500 1633 1568 1940 2085 2047 2497 2733 3324 3502 3543 3543 3497 3419 3401 3310 3253 3218 3119 3000 2762 2401 2301 2381 2428 2428 2376 2381 2366 2332 2318 2481 2616 2720 2799 2823 2784 2752 2752 2747 2693 2628 2577 2497 2532 2649 2624 2599 2611 2763 2745 2672 2131 1159 1079 1014 1204 1378
1433 1514 1573 1521 1570 1532 1549 1710 1730 1918 2009 2123 2183 2159 2507 2842 3330 3538 3611 3635 3584 3563 3470 3431 3313 3215 3125 2981 2707 2313 2293 2318 2289 2292 2304 2407 2545 2593 2674 2771 2845 2835 2779 2774 2728 2612 2528 2518 2580 2594 2605 2362 2239 2537 2635 2901 2662 1229 802 758 818 1136 938
1439 1601 1604 1514 1485 1502 1453 1608 1666 1847 1842 2152 2218 2270 2248 2185 2455 2547 2534 3190 3775 3775 3752 3678 3623 3564 3468 3374 3285 3175 2966 2652 2331 2228 2203 2392 2522 2602 2710 2773 2827 2858 2777 2694 2625 2516 2462 2412 2612 2643 2481 2000 1949 2382 2755 2642 1270 816 773 727 795 664 458
1405 1580 1723 1824 1792 1794 1736 1741 1726 1641 1927 2175 2195 2281 2325 2328 2379 2419 2439 2540 2612 3072 3562 3792 3752 3697 3555 3366 3193 2975 2620 2248 2054 2082 2146 2256 2329 2514 2630 2690 2774 2756 2682 2564 2515 2492 2446 2441 2485 2613 2124 1866 2406 2372 2536 1053 660 695 676 780 712 355 194
1449 1537 1686 1795 1909 1930 1918 1826 1765 1661 1846 2052 2087 2118 2124 2182 2222 2236 2310 2429 2540 2648 2715 2601 2593 2654 2772 2610 2353 2218 2054 1853 1822 1947 2075 2212 2384 2391 2421 2514 2627 2620 2569 2488 2525 2413 2446 2413 2528 2248 1616 2129 2672 2136 1167 920 744 632 675 619 364 0 0
1524 1584 1661 1753 1809 1968 2189 1932 1862 1792 1788 1788 1851 1761 1650 1746 1944 2058 2154 2227 2230 2492 2776 2916 2943 2914 2849 2702 2535 2404 2294 2182 2170 2117 2252 2412 2549 2532 2405 2470 2460 2508 2500 2495 2487 2403 2246 2335 2274 1919 2162 2106 1262 964 1158 911 578 503 442 290 0 0 0
Wind_Speed
nan nan 5 7 9 12 16 18 18 16 16 17 18 19 19 18 18 18 17 17 17 16 16 15 15 14 14 12 10 9 10 11 11 11 11 10 10 12 13 14 16 15 14 14 16 18 18 18 14 11 10 10 11 12 12 13 15 15 15 13 12 nan nan
nan nan nan 7 8 8 11 15 18 17 16 17 19 21 21 21 20 20 19 19 20 20 20 19 18 16 15 13 11 10 11 12 12 13 13 12 12 12 14 16 17 17 17 16 17 18 19 16 13 10 9 10 11 12 13 15 16 16 16 15 15 nan nan
nan nan nan nan 9 9 10 13 16 16 16 17 19 20 21 20 20 21 21 20 21 21 21 22 20 18 17 16 14 11 11 12 13 13 14 13 13 14 16 17 17 19 18 17 18 18 18 15 11 10 10 11 11 12 14 16 16 17 17 17 17 nan nan
nan nan nan nan 12 11 11 12 14 14 14 16 19 20 20 19 18 19 20 22 23 23 24 22 21 19 18 18 15 12 12 13 14 14 14 14 15 17 18 17 18 20 20 19 18 18 17 14 11 11 12 12 12 12 14 16 17 17 17 18 nan nan nan
nan nan nan nan nan 11 11 12 13 13 13 15 16 18 19 18 20 19 19 21 23 25 24 23 20 20 19 19 15 13 13 14 15 16 16 17 18 19 18 18 19 20 20 21 20 18 15 13 12 13 13 13 12 13 14 15 16 17 17 18 nan nan nan
nan nan nan nan nan nan 13 13 13 13 14 15 16 17 17 19 21 19 19 21 22 22 20 18 18 20 20 20 17 14 14 14 16 18 19 19 20 19 18 19 20 21 21 20 19 15 13 13 14 14 14 13 12 13 14 15 15 17 17 19 19 nan nan
nan nan nan nan nan nan nan 12 12 12 13 14 16 18 19 22 21 18 19 19 21 22 20 18 19 19 19 18 17 17 16 15 16 18 20 21 20 20 19 21 22 21 20 22 17 15 12 13 14 15 14 13 13 13 14 15 15 17 18 19 nan nan nan
nan nan nan nan nan nan nan nan 13 13 13 14 18 21 23 21 20 20 19 19 20 19 17 17 18 18 18 17 17 18 17 17 17 18 21 21 20 19 20 22 22 22 22 19 15 13 12 14 16 16 14 13 13 13 15 16 17 18 19 19 nan nan nan
nan nan nan nan nan nan nan nan nan 16 16 17 19 21 21 22 21 20 19 18 17 17 17 17 18 17 17 17 18 18 17 17 18 19 21 21 19 18 19 21 22 23 19 17 15 14 14 15 16 15 14 12 13 14 15 17 18 19 19 20 22 nan nan
nan nan nan nan nan nan nan nan nan 12 14 16 17 18 20 20 20 20 19 19 17 16 16 17 15 15 16 16 17 17 18 18 18 19 20 19 17 15 18 21 22 22 18 16 16 15 15 17 16 16 14 13 13 14 14 16 18 19 20 21 23 23 nan
nan nan nan nan nan nan nan nan nan nan 13 15 16 18 20 20 20 21 20 19 16 13 14 15 14 14 15 16 17 18 18 18 18 18 18 16 15 14 17 20 22 21 16 16 16 16 17 17 16 15 14 13 13 13 13 15 18 20 20 20 21 23 25
nan nan nan nan nan nan nan nan nan nan 14 15 16 18 20 21 21 20 20 19 15 13 13 14 14 15 16 17 17 18 18 18 18 17 17 15 13 14 17 21 22 20 16 15 15 18 17 16 15 14 12 12 12 12 13 15 18 19 20 20 21 23 nan
nan nan nan nan nan nan nan nan nan 14 15 17 18 19 19 20 20 19 19 18 16 13 13 14 15 16 17 18 18 18 19 19 18 17 15 13 14 18 21 22 22 18 15 17 17 18 18 16 14 13 12 11 11 11 14 15 16 17 18 19 22 nan nan
nan nan nan nan nan 10 11 13 nan 15 15 16 17 18 18 18 18 18 19 18 16 15 14 13 15 17 18 19 19 19 20 19 19 18 16 14 17 21 24 24 21 17 18 20 18 17 17 16 14 13 11 10 10 12 13 14 15 17 19 21 25 nan nan
nan nan nan nan nan nan nan 11 14 15 15 16 18 19 19 18 17 18 18 17 18 18 16 16 17 18 20 21 20 20 20 19 19 19 19 17 19 22 26 26 20 19 21 20 18 19 17 16 14 13 11 10 11 12 12 13 15 18 22 25 28 31 33
nan nan nan nan nan nan nan nan 12 14 15 16 19 20 20 19 19 20 22 22 22 20 17 18 17 18 20 20 21 20 20 20 21 22 23 21 20 22 27 28 23 22 22 20 18 18 18 17 14 12 11 11 11 11 12 13 14 19 27 29 30 33 34
nan nan nan nan nan nan nan nan nan 13 14 15 18 20 20 20 21 23 23 24 25 23 22 22 19 19 19 19 19 20 21 21 22 24 25 24 22 24 29 30 27 25 23 21 19 19 19 18 14 12 13 13 13 13 13 13 14 22 26 30 35 36 38
nan nan nan nan nan nan nan nan nan 18 15 16 18 20 19 19 21 24 24 26 26 26 26 23 20 20 19 17 18 21 22 23 25 26 26 27 26 25 29 33 30 26 24 22 19 20 22 18 15 15 16 16 16 15 15 14 16 23 27 32 36 39 41
nan nan nan nan nan nan nan nan nan 19 17 18 20 21 19 20 23 23 24 26 25 28 28 25 23 21 19 19 21 22 23 24 26 27 27 28 30 29 30 33 32 28 26 23 21 24 22 19 19 18 19 19 18 16 15 14 18 23 28 32 36 40 46
nan nan nan nan nan nan nan nan 22 21 22 23 23 24 23 24 24 23 23 25 29 31 29 28 25 24 22 22 23 24 25 26 26 27 27 29 32 33 31 31 31 30 29 28 28 25 23 22 21 21 21 21 20 19 17 16 18 23 27 31 35 40 47
38 nan nan nan nan nan nan nan 25 26 27 26 26 28 29 27 26 26 25 28 30 30 31 30 29 27 25 24 26 28 29 30 28 27 27 29 32 33 31 29 31 33 33 32 30 27 25 24 23 22 23 23 23 22 19 16 20 24 27 30 36 44 46
42 40 37 36 34 33 nan 32 30 30 28 28 31 34 34 32 31 31 28 29 30 31 31 32 30 28 27 27 29 31 32 32 31 29 28 29 31 31 30 29 31 33 34 33 32 30 30 28 25 24 24 25 25 23 20 18 23 25 28 32 39 48 44
46 47 44 39 37 34 37 40 39 36 33 33 33 35 34 33 33 32 32 33 33 34 33 33 31 29 30 29 31 32 33 32 33 31 30 29 29 29 29 30 30 32 37 35 33 33 32 29 27 26 27 26 26 25 21 19 24 27 30 35 46 48 44
47 47 47 48 47 42 37 38 42 43 38 33 31 30 31 35 36 36 37 36 37 38 36 35 32 31 30 30 29 30 32 32 33 32 31 30 28 27 27 28 29 31 36 35 34 33 32 32 29 29 29 30 28 26 23 21 26 30 32 41 48 50 47
49 48 49 51 50 47 42 40 41 44 44 39 32 28 31 35 38 40 39 40 41 41 40 38 35 34 31 27 25 26 28 31 32 32 31 29 27 27 27 27 28 31 35 35 34 33 35 35 33 32 33 33 31 28 26 25 29 32 36 44 49 50 49
53 54 53 52 51 49 43 41 44 45 43 38 33 37 37 36 37 39 39 41 43 42 40 39 38 37 33 28 27 28 29 30 30 30 31 29 28 28 28 28 29 31 34 35 36 36 37 36 37 37 36 37 36 32 29 30 35 35 40 46 49 51 49
50 50 53 54 55 54 51 51 47 44 42 39 41 44 45 45 41 39 39 43 46 42 41 42 41 40 36 33 33 34 33 31 30 29 29 29 29 29 31 32 31 31 33 35 39 40 39 39 41 41 41 42 41 37 35 36 39 41 45 48 52 54 54
51 54 54 54 56 58 56 55 56 56 54 52 48 46 49 48 45 42 44 47 44 41 42 43 43 41 39 38 37 36 35 34 31 29 29 31 34 34 33 34 34 33 33 36 40 43 44 46 48 49 50 50 46 43 41 43 46 49 46 52 56 54 49
52 51 51 54 54 55 56 54 56 56 54 51 51 52 51 51 49 47 49 47 42 44 47 48 46 43 42 43 43 41 40 40 39 36 34 34 35 36 36 39 39 37 36 38 41 46 50 51 52 51 51 52 50 48 50 53 53 56 54 53 55 48 41
51 49 49 49 47 48 49 49 48 48 48 48 48 48 49 51 50 49 51 46 49 52 51 50 49 48 48 47 44 43 43 45 46 46 42 38 40 40 41 42 41 42 41 41 44 49 52 53 55 54 53 54 55 58 60 59 62 61 57 58 51 43 37
51 50 49 47 48 46 45 45 42 42 42 43 44 45 46 46 48 50 47 47 52 52 53 51 51 51 52 52 52 52 52 53 53 54 52 48 46 44 44 42 43 44 46 48 50 52 53 52 52 53 54 58 61 64 64 63 64 63 61 59 51 41 34
52 50 49 48 48 47 45 43 42 42 42 42 45 46 47 46 46 45 44 49 50 52 54 55 55 55 54 56 57 57 58 57 57 59 60 59 52 46 44 42 42 45 50 53 55 56 55 53 52 53 56 60 65 67 67 66 66 63 60 58 54 40 30
52 52 52 51 49 46 46 46 45 45 44 43 45 47 48 48 46 45 46 45 47 49 54 56 58 57 57 58 59 60 59 58 59 61 62 63 60 55 52 50 48 50 51 53 56 57 57 57 56 57 61 65 65 68 69 69 69 67 63 61 52 39 33
53 53 51 50 49 48 48 48 49 50 49 48 45 46 47 48 48 47 46 46 47 46 47 51 54 55 55 58 60 61 61 59 59 61 61 62 65 67 67 62 56 52 49 48 52 57 58 60 62 65 69 70 68 68 70 73 73 69 66 61 52 40 37
54 54 53 52 50 51 52 51 53 52 53 52 49 48 48 48 49 49 50 48 48 49 48 47 49 49 51 54 58 60 63 65 65 62 61 65 67 68 65 60 55 52 48 45 49 54 58 66 75 78 74 70 68 68 69 73 71 66 68 66 55 45 44
58 59 58 55 53 54 53 54 54 56 55 53 53 53 52 52 52 52 52 53 52 52 50 49 49 50 52 55 59 66 71 74 76 76 73 70 69 67 64 65 63 57 54 54 61 66 70 75 79 77 71 67 60 61 66 64 66 75 80 75 61 51 50
61 61 62 60 60 60 59 58 59 60 59 57 57 57 57 57 55 55 55 55 54 53 52 53 52 51 53 59 61 65 70 73 75 73 72 71 70 67 68 68 64 65 67 59 61 72 75 79 83 85 82 75 65 59 58 66 74 77 77 73 65 nan nan
62 63 64 65 65 65 65 63 61 60 58 57 57 56 57 58 57 56 56 56 56 55 54 54 55 56 58 60 61 65 67 70 74 74 72 70 67 67 68 71 70 69 71 78 70 73 83 83 83 82 83 84 85 80 72 69 71 74 72 69 nan nan nan
Wind_Direction
nan nan 328 324 315 303 302 309 318 317 314 315 322 327 324 318 320 316 320 323 327 323 322 321 323 321 333 332 335 326 317 307 298 296 291 292 292 294 294 290 294 297 296 302 304 305 304 301 308 312 314 321 322 323 322 320 324 327 326 329 334 nan nan
nan nan nan 314 319 311 302 301 305 306 304 310 318 324 321 324 323 324 324 321 324 326 325 328 330 331 333 328 314 316 313 310 302 288 284 281 282 283 285 288 293 295 295 299 299 296 295 299 299 301 307 309 314 315 314 313 318 319 318 320 327 nan nan
nan nan nan nan 331 323 312 287 288 299 305 307 314 316 321 326 327 328 319 313 317 319 319 329 335 337 333 329 318 316 311 302 296 295 295 291 289 286 280 283 285 286 290 292 290 290 291 291 286 290 296 300 303 308 309 310 311 313 313 315 319 nan nan
nan nan nan nan 340 326 308 289 288 294 296 307 316 321 323 328 321 315 310 311 314 316 326 331 334 338 337 337 332 316 308 303 298 290 286 279 279 276 275 276 276 276 279 284 284 285 284 280 279 282 291 290 295 301 305 309 308 311 312 315 nan nan nan
nan nan nan nan nan 311 295 277 276 287 300 309 314 315 320 318 309 301 301 306 312 322 329 332 333 339 339 340 329 313 308 303 293 284 278 274 272 271 274 277 275 276 278 276 276 279 274 266 269 276 281 282 289 295 303 303 309 311 314 319 nan nan nan
nan nan nan nan nan nan 315 297 291 296 300 304 306 306 308 301 291 301 307 308 310 315 316 321 335 339 341 342 335 322 306 299 294 289 283 279 275 274 275 271 270 270 270 275 273 272 264 257 266 275 277 276 285 291 295 301 305 310 316 319 323 nan nan
nan nan nan nan nan nan nan 320 306 304 300 297 297 295 289 283 293 305 303 309 314 316 321 330 341 339 339 334 338 331 324 313 299 292 282 279 276 274 270 265 266 265 266 265 268 260 252 253 263 270 273 276 282 291 292 297 302 305 310 317 nan nan nan
nan nan nan nan nan nan nan nan 335 323 308 288 279 277 280 288 295 297 306 317 317 315 320 335 338 337 335 333 333 336 328 318 303 292 282 279 273 271 268 264 262 260 260 268 263 249 245 251 254 258 266 270 280 285 289 296 302 304 308 319 nan nan nan
nan nan nan nan nan nan nan nan nan 330 317 301 293 293 295 291 293 302 312 312 307 315 328 334 338 331 325 331 333 334 324 314 306 296 290 285 273 270 265 261 257 256 263 263 249 236 237 246 249 254 261 266 274 282 289 298 302 305 314 325 331 nan nan
nan nan nan nan nan nan nan nan nan 313 301 298 293 286 289 295 302 304 305 306 303 322 332 327 322 319 324 330 331 326 323 321 308 303 298 291 277 268 260 256 253 254 259 253 239 236 235 238 244 249 259 268 274 282 292 299 304 308 319 329 332 336 nan
nan nan nan nan nan nan nan nan nan nan 303 303 303 301 300 301 302 306 311 308 311 321 321 315 311 316 322 325 327 327 329 325 314 315 314 301 273 260 254 254 253 253 256 243 234 236 238 234 237 247 256 268 280 290 300 307 308 315 323 329 333 339 343
nan nan nan nan nan nan nan nan nan nan 294 290 293 298 299 299 301 306 310 317 320 316 306 310 307 317 318 320 327 332 335 327 323 329 328 308 271 252 249 250 253 255 245 236 235 238 238 237 237 245 258 268 282 296 307 306 312 323 329 333 336 339 nan
nan nan nan nan nan nan nan nan nan 303 302 297 295 295 296 298 299 302 307 315 317 313 310 309 309 314 317 322 329 333 338 333 329 326 325 307 267 247 245 249 254 253 240 233 237 239 237 237 240 239 254 270 282 296 304 309 316 324 329 332 334 nan nan
nan nan nan nan nan 242 257 280 nan 305 310 304 294 292 294 293 292 295 302 310 310 306 305 301 310 315 320 321 330 339 342 334 322 316 317 298 266 252 251 253 252 241 231 234 238 239 242 243 242 242 251 270 283 290 295 309 321 325 325 326 328 nan nan
nan nan nan nan nan nan nan 263 282 300 308 309 300 295 295 289 285 281 282 290 297 303 316 314 312 317 318 320 332 340 335 324 314 308 304 295 276 263 261 262 253 235 232 236 236 237 244 242 242 248 257 267 279 287 295 311 323 322 323 325 328 328 329
nan nan nan nan nan nan nan nan 272 294 304 302 300 298 291 285 286 288 291 294 297 304 307 298 309 316 318 326 336 331 320 313 310 309 303 297 289 273 266 263 251 235 234 238 241 245 244 239 240 251 264 271 276 285 297 312 318 332 338 334 329 328 325
nan nan nan nan nan nan nan nan nan 273 281 291 299 301 294 288 288 289 292 290 292 300 301 301 308 313 320 334 331 314 308 307 308 306 307 304 292 275 268 266 253 238 236 241 246 250 244 239 245 253 260 272 278 289 295 306 320 343 340 340 337 328 322
nan nan nan nan nan nan nan nan nan 269 282 291 297 298 290 283 280 281 286 287 291 297 296 297 302 312 322 328 311 303 306 305 302 303 305 302 299 285 272 265 257 245 244 248 250 247 243 242 250 260 267 270 278 287 296 309 331 341 342 339 337 331 317
nan nan nan nan nan nan nan nan nan 287 290 283 285 292 294 287 283 286 289 290 294 288 291 296 301 306 310 307 302 305 304 299 297 300 300 301 298 287 273 268 264 257 255 259 254 247 248 249 255 265 271 277 284 292 302 311 334 340 340 337 335 329 310
nan nan nan nan nan nan nan nan 269 278 286 283 286 294 292 286 292 294 289 287 281 283 287 292 296 300 304 301 303 307 304 299 297 298 299 294 292 290 283 274 271 265 259 256 255 254 251 253 264 268 274 279 286 293 299 313 329 337 336 335 331 317 304
227 nan nan nan nan nan nan nan 266 269 271 271 274 273 275 281 283 278 274 272 276 280 286 293 298 300 303 302 301 300 303 304 303 300 295 292 292 294 292 283 272 267 260 260 266 265 259 260 266 270 276 282 285 288 298 309 328 331 334 329 321 310 307
223 228 232 236 238 237 nan 247 262 268 269 272 272 271 278 287 287 280 278 276 280 282 285 290 292 294 293 297 298 300 301 302 302 298 294 294 295 298 298 287 276 271 264 261 263 262 256 255 262 271 275 281 286 291 300 306 321 326 328 321 310 307 303
225 224 223 227 238 243 244 244 241 241 247 259 266 271 277 280 278 275 273 273 274 275 278 282 284 287 291 297 299 297 295 296 297 296 295 296 299 302 300 293 281 269 261 262 265 266 266 266 269 272 276 283 287 291 296 299 309 320 319 310 304 302 301
225 227 226 227 228 233 241 247 248 251 251 247 256 270 274 272 270 269 270 274 274 275 278 282 286 286 290 296 296 293 290 290 292 294 293 292 298 301 299 295 281 269 262 264 267 269 269 265 265 269 274 280 285 290 293 295 299 311 309 301 303 303 303
226 227 229 230 229 227 229 236 247 251 253 256 253 252 260 265 267 269 274 275 275 275 282 290 292 286 289 296 296 291 287 284 285 290 293 293 292 292 298 298 289 273 262 260 263 266 261 259 261 266 270 275 280 289 294 288 286 298 298 296 301 304 301
222 223 226 228 231 230 231 236 244 249 256 260 261 254 245 248 260 268 272 272 271 272 279 290 292 288 288 291 288 284 285 286 289 291 292 293 288 287 293 291 285 278 268 261 259 259 258 259 261 266 268 270 272 274 282 279 274 284 291 292 300 304 297
227 229 228 229 233 232 231 234 242 246 246 250 254 255 257 256 254 255 261 267 269 275 283 287 286 284 286 287 284 284 288 289 292 294 291 287 284 283 282 281 286 285 277 267 259 259 258 259 257 259 260 262 265 268 271 272 274 278 286 289 297 298 297
224 224 227 232 234 237 237 235 239 242 242 241 243 252 261 262 263 263 262 265 271 279 285 284 283 281 279 279 281 284 285 286 285 286 279 274 271 271 275 277 279 280 280 271 263 262 260 255 253 254 256 260 267 269 271 270 276 272 280 287 291 296 298
229 229 229 228 228 232 237 238 239 243 244 245 247 251 257 261 266 265 264 268 274 273 271 270 271 270 267 267 272 276 281 282 283 280 271 266 267 268 268 268 270 268 268 269 266 263 261 259 258 259 261 264 267 268 265 264 268 276 278 286 291 293 297
231 231 231 233 235 236 238 241 242 243 244 247 247 247 254 266 264 265 269 273 271 269 270 271 271 270 267 266 267 269 272 277 281 282 278 272 265 263 263 264 267 268 266 267 268 267 266 262 261 260 263 267 266 263 263 266 268 271 275 278 283 286 294
232 233 232 234 234 235 240 240 241 245 246 249 248 250 248 254 266 270 271 270 267 269 271 272 270 270 271 271 271 270 269 269 270 273 272 266 259 257 258 259 262 266 266 264 264 265 265 266 266 265 266 266 266 265 266 267 267 269 278 288 284 276 285
231 233 234 237 237 238 239 240 241 242 245 249 251 251 252 252 252 260 266 269 272 271 273 274 274 275 276 276 276 276 275 274 274 274 275 273 266 263 261 260 257 260 261 264 265 264 265 267 268 267 267 267 267 270 271 271 271 270 275 281 275 268 285
230 231 233 235 238 240 243 244 246 247 245 244 246 246 248 248 251 253 252 254 259 268 274 275 279 280 278 278 278 277 276 278 276 276 278 279 277 274 270 264 259 257 258 263 267 269 270 269 269 268 266 265 267 269 271 272 271 270 275 276 269 267 288
233 233 235 239 240 242 245 246 248 250 251 251 246 244 244 245 246 246 249 254 255 253 261 274 279 281 282 283 281 279 280 279 284 283 279 282 282 279 273 267 263 260 260 263 266 269 271 273 270 266 264 262 263 265 267 270 270 272 278 277 267 271 294
239 238 238 239 241 243 245 245 247 250 253 252 255 253 248 247 248 249 250 253 254 257 257 258 264 269 274 277 278 278 276 271 266 267 273 279 281 279 275 273 269 265 260 261 262 264 267 263 259 258 259 263 263 261 262 266 271 275 279 280 277 286 299
238 238 239 240 244 246 247 248 250 252 253 255 256 256 256 257 256 256 258 257 257 257 256 257 260 262 265 266 267 266 267 269 272 272 268 269 275 273 259 250 255 256 261 262 262 264 266 266 263 265 268 270 266 261 262 269 272 275 278 278 281 289 300
239 239 239 240 242 244 246 249 251 252 253 254 253 254 255 256 258 259 260 261 262 260 258 257 258 259 259 262 263 269 271 272 272 272 272 273 276 271 265 262 258 251 247 248 270 276 274 269 268 268 269 271 270 262 257 265 274 279 277 280 283 nan nan
242 242 242 242 242 243 243 246 249 252 253 253 254 255 256 256 257 258 258 260 261 260 260 260 260 261 261 262 264 267 269 268 269 269 269 269 269 269 270 270 266 257 253 252 254 270 271 264 265 268 264 262 263 264 258 267 274 277 278 281 nan nan nan